This is the latest recevied weather packets stored in our database for station/object DM4XI-13. If no packets are shown the sender has not sent any weather packets the latest 10 day(s).
| Time | Temp. | Humidity | Pressure | Rain* | Wind** | Luminosity | Snow |
|---|---|---|---|---|---|---|---|
| 1778176943 | 10.56° C | 82% | 1012.8 hPa | 0 mm | 0 m/s | 18 W/m² | - |
| 1778176882 | 10.56° C | 82% | 1012.8 hPa | 0 mm | 0.89 m/s, 288° | 18 W/m² | - |
| 1778176821 | 10.56° C | 82% | 1012.9 hPa | 0 mm | 0 m/s | 18 W/m² | - |
| 1778176760 | 10.56° C | 82% | 1012.9 hPa | 0 mm | 0.45 m/s, 288° | 19 W/m² | - |
| 1778176699 | 11.11° C | 81% | 1012.7 hPa | 0 mm | 0.45 m/s, 292° | 20 W/m² | - |
| 1778176638 | 11.11° C | 81% | 1012.9 hPa | 0 mm | 0.45 m/s, 298° | 20 W/m² | - |
| 1778176577 | 11.11° C | 81% | 1012.8 hPa | 0 mm | 0.45 m/s, 307° | 21 W/m² | - |
| 1778176516 | 11.11° C | 81% | 1012.9 hPa | 0 mm | 0.89 m/s, 347° | 21 W/m² | - |
| 1778176455 | 11.11° C | 81% | 1012.8 hPa | 0 mm | 0.89 m/s, 292° | 21 W/m² | - |
| 1778176393 | 11.11° C | 81% | 1012.9 hPa | 0 mm | 0.89 m/s, 262° | 22 W/m² | - |
| 1778176333 | 11.11° C | 81% | 1012.7 hPa | 0 mm | 0 m/s | 24 W/m² | - |
| 1778176272 | 11.11° C | 81% | 1012.8 hPa | 0 mm | 0 m/s | 26 W/m² | - |
| 1778176211 | 11.11° C | 81% | 1012.9 hPa | 0 mm | 0 m/s | 27 W/m² | - |
| 1778176149 | 11.11° C | 81% | 1012.9 hPa | 0 mm | 0.45 m/s, 281° | 28 W/m² | - |
| 1778176088 | 11.11° C | 82% | 1012.7 hPa | 0 mm | 0 m/s | 30 W/m² | - |
| 1778176028 | 11.11° C | 81% | 1013.1 hPa | 0 mm | 0.89 m/s, 303° | 32 W/m² | - |
| 1778175966 | 11.11° C | 82% | 1012.9 hPa | 0 mm | 0.45 m/s, 327° | 33 W/m² | - |
| 1778175906 | 11.11° C | 82% | 1012.8 hPa | 0 mm | 0.45 m/s, 277° | 34 W/m² | - |
| 1778175845 | 11.11° C | 81% | 1012.6 hPa | 0 mm | 0.45 m/s, 280° | 34 W/m² | - |
| 1778175784 | 11.11° C | 82% | 1012.6 hPa | 0 mm | 0.45 m/s, 265° | 34 W/m² | - |
| 1778175724 | 11.11° C | 81% | 1012.9 hPa | 0 mm | 0.45 m/s, 273° | 32 W/m² | - |
| 1778175662 | 11.11° C | 81% | 1012.8 hPa | 0 mm | 0.45 m/s, 272° | 30 W/m² | - |
| 1778175601 | 11.11° C | 81% | 1012.7 hPa | 0 mm | 0 m/s | 29 W/m² | - |
| 1778175540 | 11.11° C | 81% | 1012.7 hPa | 0 mm | 0.45 m/s, 272° | 29 W/m² | - |
| 1778175479 | 11.11° C | 81% | 1012.8 hPa | 0 mm | 0.45 m/s, 275° | 29 W/m² | - |
* Rain latest hour (hover to see other rain measurements)
** Current wind speed in m/s (hover to see current wind gust speed)